This is the latest recevied weather packets stored in our database for station/object K1KOF. If no packets are shown the sender has not sent any weather packets the latest 10 day(s).
| Time | Temp. | Humidity | Pressure | Rain* | Wind** | Luminosity | Snow |
|---|---|---|---|---|---|---|---|
| 1777744916 | 14.44° C | 88% | 1023.2 hPa | 0 mm | - | 165 W/m² | - |
| 1777744615 | 14.44° C | 88% | 1023.3 hPa | 0 mm | - | 148 W/m² | - |
| 1777744310 | 14.44° C | 87% | 1023.1 hPa | 0 mm | - | 185 W/m² | - |
| 1777744008 | 15° C | 88% | 1023 hPa | 0 mm | - | 350 W/m² | - |
| 1777743704 | 15° C | 91% | 1023 hPa | 0 mm | - | 317 W/m² | - |
| 1777743402 | 15° C | 90% | 1022.9 hPa | 0 mm | - | 229 W/m² | - |
| 1777743100 | 15° C | 92% | 1022.9 hPa | 0 mm | - | 377 W/m² | - |
| 1777742797 | 14.44° C | 91% | 1023.1 hPa | 0 mm | - | 209 W/m² | - |
| 1777742493 | 14.44° C | 91% | 1023 hPa | 0 mm | - | 124 W/m² | - |
| 1777742189 | 14.44° C | 90% | 1023.1 hPa | 0 mm | - | 176 W/m² | - |
| 1777741886 | 14.44° C | 92% | 1023 hPa | 0 mm | - | 345 W/m² | - |
| 1777741583 | 14.44° C | 91% | 1023.2 hPa | 0 mm | - | 214 W/m² | - |
| 1777741280 | 13.89° C | 92% | 1023.3 hPa | 0 mm | - | 283 W/m² | - |
| 1777740977 | 13.89° C | 93% | 1023.3 hPa | 0 mm | - | 272 W/m² | - |
| 1777740674 | 13.89° C | 93% | 1023.2 hPa | 0 mm | - | 276 W/m² | - |
| 1777740369 | 13.89° C | 93% | 1023.3 hPa | 0 mm | - | 261 W/m² | - |
| 1777740067 | 13.89° C | 94% | 1023.3 hPa | 0 mm | - | 267 W/m² | - |
| 1777739763 | 13.89° C | 95% | 1023.6 hPa | 0 mm | - | 309 W/m² | - |
| 1777739460 | 13.33° C | 96% | 1023.4 hPa | 0 mm | - | 231 W/m² | - |
| 1777739156 | 13.33° C | 97% | 1023.3 hPa | 0 mm | - | 240 W/m² | - |
| 1777738854 | 13.33° C | 98% | 1023.2 hPa | 0 mm | - | 212 W/m² | - |
| 1777738550 | 13.33° C | 98% | 1023.3 hPa | 0 mm | - | 198 W/m² | - |
| 1777738248 | 13.33° C | 98% | 1023.5 hPa | 0 mm | - | 193 W/m² | - |
| 1777737946 | 13.33° C | 98% | 1023.6 hPa | 0 mm | - | 174 W/m² | - |
| 1777737644 | 13.33° C | 99% | 1023.4 hPa | 0 mm | - | 168 W/m² | - |
* Rain latest hour (hover to see other rain measurements)
** Current wind speed in m/s (hover to see current wind gust speed)